[[{"header":{"parameterUnit":"m.s-1","parameterCategory":1,"la1":30.2991,"la2":30.254,"lo1":-89.0895,"lo2":-89.0444,"dy":0.0017,"dx":0.0017,"nx":28,"ny":28,"refTime":"2025-11-21T09:00:00:Z","depth":0,"parameterNumber":2,"parameterNumberName":"U-component_of_WINDS"},"data":[0,0,0,0,0,0,0,0,0,0,0,0,0,0,0,0,0,0,0,0,0,0,0,0,0,0,0,0,0,0,0,0,0,0,0,0,0,0,0,0,0,0,0,0,0,0,0,0,0,0,0,0,0,0,0,0,0,0,2.1116,2.1117,0,2.1171,2.1172,2.1172,2.1131,2.113,2.1128,2.1126,2.1184,2.1187,2.119,0,0,0,0,0,0,0,0,0,0,0,0,0,2.0979,2.0981,2.1116,2.1117,2.1117,2.1171,2.1172,2.1172,2.1132,2.1129,2.1127,2.1125,2.1183,2.1187,2.1191,0,0,0,0,0,0,0,0,0,0,0,0,0,2.1036,2.0982,2.1116,2.1104,2.1103,2.1171,2.1172,2.1173,2.1132,2.1129,2.1127,2.1124,2.1182,2.1186,2.1191,2.1275,0,0,2.1206,2.1208,0,0,0,0,0,0,0,0,2.1033,2.1042,2.1105,2.1105,2.1104,2.1141,2.1144,2.1207,2.1133,2.1121,2.1126,2.1123,2.1172,2.1178,2.1194,2.1278,2.128,2.1206,2.1209,2.1211,2.1213,0,0,0,0,0,0,0,2.1029,2.1039,2.1138,2.1106,2.1105,2.1096,2.1101,2.1156,2.1161,2.1122,2.1119,2.1126,2.1172,2.1189,2.1195,2.1281,2.1206,2.1211,2.1214,2.1215,2.1437,2.144,0,0,0,0,0,0,2.1026,2.1036,2.1136,2.1139,2.1061,2.1101,2.1107,2.1132,2.116,2.1162,2.1128,2.1124,2.1182,2.1189,2.1197,2.1297,2.1211,2.1216,2.1219,2.1434,2.1438,2.1441,0,0,0,0,0,0,2.1023,2.1035,2.1134,2.1087,2.1099,2.1106,2.1135,2.1135,2.1152,2.1165,2.1166,2.1145,2.1181,2.119,2.1256,2.1299,2.1218,2.1222,2.1431,2.1435,2.1439,2.1499,0,0,0,0,0,0,2.102,2.1035,2.1066,2.1088,2.1101,2.1191,2.1138,2.1138,2.1161,2.1155,2.1181,2.1183,2.1179,2.1249,2.1261,2.1304,2.1226,2.1427,2.1433,2.1438,2.1493,2.1505,2.1515,0,0,0,0,0,2.1015,2.108,2.1068,2.108,2.114,2.1194,2.1202,2.1195,2.1164,2.1196,2.1205,2.1182,2.1292,2.1256,2.1269,2.1314,2.1424,2.1431,2.1438,2.1488,2.1502,2.1514,0,0,0,0,0,0,2.1063,2.1083,2.1069,2.1144,2.1167,2.1187,2.1227,2.121,2.1244,2.1238,2.1229,2.1235,2.1304,2.1316,2.1275,2.1397,2.1353,2.1363,2.1387,2.1401,2.1412,2.1408,2.123,0,0,0,0,0,2.1083,2.1124,2.1139,2.1203,2.1216,2.122,2.1243,2.1236,2.126,2.127,2.1283,2.1308,2.1349,2.1375,2.1413,2.1494,2.15,2.1532,2.1543,2.1552,2.156,2.1605,2.162,2.1463,2.1463,2.1463,0,0,2.1123,2.1139,2.1166,2.1214,2.1231,2.1275,2.1228,2.1276,2.1309,2.1278,2.134,2.1351,2.1379,2.1453,2.1486,2.1465,2.1605,2.156,2.1567,2.1571,2.1614,2.1629,2.1642,2.1468,2.1467,2.1466,0,0,2.1219,2.1235,2.1291,2.131,2.1337,2.1339,2.1353,2.1375,2.1381,2.1444,2.1421,2.1461,2.153,2.1551,2.157,2.1676,2.1657,2.1689,2.1745,2.1789,2.1802,2.1813,2.1851,2.1865,2.1697,2.1697,2.1697,0,2.1266,2.1331,2.1322,2.1372,2.1394,2.1368,2.1425,2.1444,2.1482,2.1499,2.1474,2.1561,2.1577,2.1657,2.1683,2.1699,2.1715,2.1686,2.18,2.1811,2.1821,2.1858,2.1872,2.1701,2.17,2.17,2.17,0,2.1388,2.1433,2.1475,2.1512,2.1539,2.1593,2.1593,2.1622,2.1613,2.1618,2.1683,2.1702,2.1744,2.1762,2.1754,2.1841,2.1827,2.1801,2.1757,2.184,2.1874,2.1888,2.1706,2.1705,2.1704,2.1703,0,0,2.1516,2.1548,2.1564,2.1581,2.161,2.1645,2.1698,2.1738,2.1763,2.1791,2.1835,2.1895,2.1872,2.1895,2.1889,2.1927,2.2011,2.1897,2.1898,2.1918,2.2109,2.2128,2.2144,2.1998,2.2001,2.2003,2.2107,0,2.1614,2.1705,2.1699,2.1785,2.1828,2.1804,2.185,2.1873,2.1879,2.1917,2.1924,2.1967,2.1933,2.1946,2.1983,2.1993,2.2049,2.1985,2.2041,2.2043,2.2035,2.2162,2.2182,2.2279,2.212,2.2122,2.2124,0,2.174,2.1772,2.1863,2.1886,2.1903,2.1945,2.1982,2.2018,2.2044,2.2046,2.2072,2.206,2.2114,2.2068,2.2143,2.21,2.2123,2.2131,2.2135,2.214,2.2088,2.2171,2.2309,2.2324,2.2145,2.2143,2.2142,0,2.1826,2.1891,2.1954,2.197,2.1998,2.2028,2.2041,2.2065,2.209,2.2122,2.2139,2.2177,2.2199,2.223,2.2229,2.2195,2.2305,2.2259,2.2309,2.231,2.2334,2.2332,2.2478,2.2348,2.2348,2.2347,2.2347,0,2.1936,2.1993,2.1993,2.2032,2.2095,2.2088,2.2151,2.2161,2.2182,2.2223,2.2205,2.2244,2.224,2.228,2.2279,2.2342,2.2352,2.2356,2.2355,2.2358,2.2357,2.2372,2.2366,2.2351,2.235,2.2349,2.2349,0,2.2042,2.2044,2.2111,2.2133,2.214,2.2185,2.2204,2.2242,2.2246,2.2299,2.2311,2.2319,2.2365,2.2367,2.2419,2.2419,2.2496,2.2488,2.2487,2.2486,2.2536,2.2531,2.2696,2.2718,2.2574,2.2575,2.2576,0,2.2112,2.2155,2.2182,2.2208,2.2223,2.2265,2.229,2.2286,2.2313,2.2347,2.238,2.2424,2.2459,2.2534,2.2545,2.2585,2.2578,2.2633,2.2584,2.2586,2.258,2.2577,2.2582,2.2643,2.2645,2.2646,2.2647,0,2.2238,2.2237,2.2274,2.2312,2.2343,2.2373,2.24,2.2423,2.2422,2.2454,2.25,2.2527,2.2581,2.2625,2.2665,2.2679,2.2664,2.2662,2.2676,2.2679,2.2677,2.268,2.2514,2.2659,2.2657,2.2657,2.2656,2.2655,2.2328,2.2366,2.239,2.2433,2.2453,2.248,2.2516,2.2526,2.2564,2.2607,2.2603,2.2654,2.2681,2.2732,2.275,2.2791,2.2772,2.2792,2.2797,2.2802,2.2808,2.2671,2.2798,2.2798,2.2797,2.2797,2.2797,0,2.2453,2.2468,2.2507,2.2546,2.258,2.2562,2.2592,2.2621,2.2667,2.2692,2.2727,2.2781,2.2824,2.2839,2.2881,2.2911,2.2905,2.2922,2.292,2.2924,2.2822,2.2806,2.2926,2.2926,2.2926,2.2926,2.2926,2.2926,2.2522,2.2585,2.2587,2.266,2.2674,2.2725,2.2744,2.2768,2.2789,2.285,2.2885,2.2894,2.2916,2.2959,2.2998,2.3002,2.3018,2.3039,2.3039,2.2944,2.2931,2.2918,2.2903,2.3042,2.3042,2.3138,2.3138,2.3139]},{"header":{"parameterUnit":"m.s-1","parameterCategory":1,"la1":30.2991,"la2":30.254,"lo1":-89.0895,"lo2":-89.0444,"dy":0.0017,"dx":0.0017,"nx":28,"ny":28,"refTime":"2025-11-21T09:00:00:Z","depth":0,"parameterNumber":3,"parameterNumberName":"V-component_of_WINDS"},"data":[0,0,0,0,0,0,0,0,0,0,0,0,0,0,0,0,0,0,0,0,0,0,0,0,0,0,0,0,0,0,0,0,0,0,0,0,0,0,0,0,0,0,0,0,0,0,0,0,0,0,0,0,0,0,0,0,0,0,0.4971,0.4971,0,0.5004,0.5004,0.5005,0.5015,0.5015,0.5015,0.5015,0.5048,0.5049,0.505,0,0,0,0,0,0,0,0,0,0,0,0,0,0.4914,0.4915,0.4971,0.4971,0.4971,0.5004,0.5004,0.5005,0.5015,0.5015,0.5015,0.5015,0.5048,0.5049,0.505,0,0,0,0,0,0,0,0,0,0,0,0,0,0.4942,0.4916,0.497,0.498,0.4982,0.5004,0.5004,0.5005,0.5015,0.5015,0.5015,0.5014,0.5047,0.5049,0.505,0.5065,0,0,0.5055,0.5056,0,0,0,0,0,0,0,0,0.4941,0.4944,0.4979,0.498,0.4981,0.5005,0.4997,0.5025,0.5015,0.5002,0.5015,0.5014,0.5034,0.5037,0.5043,0.5066,0.5068,0.5055,0.5056,0.5057,0.5057,0,0,0,0,0,0,0,0.4939,0.4943,0.4984,0.4979,0.4981,0.4983,0.4986,0.5002,0.5019,0.5004,0.5004,0.5008,0.5035,0.5042,0.5044,0.5068,0.5055,0.5057,0.5058,0.5058,0.5103,0.5103,0,0,0,0,0,0,0.4935,0.4941,0.4983,0.4985,0.496,0.4984,0.4988,0.4998,0.5019,0.5022,0.5008,0.5009,0.5039,0.5042,0.5045,0.5063,0.5057,0.5058,0.5059,0.5103,0.5103,0.5103,0,0,0,0,0,0,0.4934,0.4939,0.4981,0.4963,0.4969,0.4985,0.4996,0.4998,0.5006,0.5023,0.5026,0.5013,0.5039,0.5043,0.506,0.5064,0.5059,0.506,0.5102,0.5103,0.5103,0.5098,0,0,0,0,0,0,0.4932,0.4938,0.4944,0.4963,0.497,0.4995,0.4996,0.4999,0.5008,0.5009,0.5027,0.503,0.5039,0.5057,0.5061,0.5066,0.5062,0.5102,0.5103,0.5103,0.5098,0.5099,0.5099,0,0,0,0,0,0.493,0.4942,0.4945,0.495,0.4978,0.4996,0.4999,0.501,0.5009,0.5015,0.5025,0.503,0.5063,0.5059,0.5063,0.5069,0.5102,0.5102,0.5103,0.5098,0.5098,0.5099,0,0,0,0,0,0,0.4923,0.4945,0.4948,0.4966,0.4979,0.4997,0.5005,0.501,0.5023,0.5023,0.5035,0.5039,0.5055,0.5063,0.5058,0.5083,0.5082,0.5084,0.5077,0.5078,0.5078,0.5076,0.5063,0,0,0,0,0,0.4924,0.4937,0.4955,0.4969,0.4975,0.4989,0.4997,0.5004,0.5018,0.5023,0.5035,0.5048,0.5061,0.507,0.5083,0.5099,0.5103,0.5105,0.5105,0.5106,0.5107,0.5115,0.5116,0.5105,0.5105,0.5105,0,0,0.4925,0.4938,0.4946,0.4968,0.4979,0.4991,0.4994,0.5007,0.5017,0.5025,0.5042,0.505,0.5065,0.5081,0.5089,0.5089,0.5111,0.5106,0.5106,0.5108,0.5116,0.5117,0.5118,0.5106,0.5106,0.5106,0,0,0.4934,0.4946,0.4959,0.4969,0.4985,0.4994,0.4997,0.5015,0.5021,0.5037,0.5043,0.5054,0.5077,0.5087,0.5096,0.5107,0.5111,0.511,0.5112,0.512,0.5121,0.5122,0.5125,0.5127,0.5112,0.5112,0.5112,0,0.4934,0.4954,0.4965,0.4978,0.4987,0.4994,0.5007,0.5017,0.5036,0.5042,0.5042,0.507,0.508,0.5098,0.5101,0.5107,0.5111,0.5109,0.512,0.5121,0.5122,0.5126,0.5127,0.5111,0.5111,0.5111,0.5111,0,0.4953,0.4966,0.4974,0.4993,0.5003,0.5016,0.5027,0.5036,0.5041,0.505,0.5065,0.5078,0.5094,0.5098,0.5104,0.5117,0.5116,0.5118,0.5118,0.5123,0.5126,0.5128,0.5111,0.5111,0.5111,0.5111,0,0,0.496,0.4983,0.4985,0.4993,0.5011,0.5022,0.5034,0.5049,0.5056,0.5069,0.5079,0.5097,0.5099,0.5108,0.5114,0.5121,0.5128,0.5122,0.5122,0.5122,0.5142,0.5141,0.5143,0.5131,0.5131,0.5131,0.5141,0,0.4971,0.4994,0.5003,0.5022,0.5034,0.5041,0.5051,0.5063,0.5071,0.5082,0.509,0.5103,0.5104,0.5109,0.5116,0.5126,0.5132,0.5125,0.514,0.5141,0.5137,0.5145,0.5144,0.5153,0.5143,0.5143,0.5143,0,0.4988,0.5,0.502,0.5035,0.5041,0.505,0.5064,0.5075,0.5087,0.5092,0.5102,0.5108,0.512,0.5118,0.5135,0.513,0.5136,0.5142,0.5142,0.5145,0.5142,0.5147,0.5156,0.5157,0.5145,0.5145,0.5145,0,0.499,0.5012,0.5027,0.5033,0.5051,0.5058,0.5065,0.5078,0.5086,0.5098,0.5103,0.5116,0.5123,0.5133,0.5142,0.5139,0.5157,0.5156,0.5162,0.5161,0.5166,0.5165,0.5175,0.5169,0.5169,0.5169,0.5169,0,0.5002,0.5014,0.5028,0.5037,0.505,0.506,0.5072,0.508,0.5091,0.5101,0.5107,0.5116,0.5127,0.5137,0.5144,0.5157,0.516,0.5164,0.5166,0.5164,0.5163,0.5168,0.5168,0.517,0.517,0.517,0.5169,0,0.5008,0.5018,0.5034,0.5049,0.5053,0.5062,0.5075,0.5083,0.5091,0.5104,0.5107,0.5119,0.5131,0.5141,0.5157,0.5161,0.5174,0.5176,0.517,0.5171,0.5176,0.5175,0.519,0.5192,0.5184,0.5184,0.5184,0,0.5015,0.5024,0.504,0.5047,0.5055,0.5067,0.5075,0.5084,0.5092,0.5106,0.5113,0.5125,0.5136,0.5155,0.5165,0.5177,0.5179,0.5183,0.5181,0.5178,0.5179,0.5178,0.5179,0.5184,0.5184,0.5184,0.5184,0,0.5026,0.5031,0.5042,0.5055,0.5064,0.5075,0.5086,0.5091,0.5102,0.511,0.5123,0.5131,0.5147,0.516,0.5172,0.5179,0.5183,0.5184,0.5186,0.5184,0.5181,0.5182,0.5171,0.5184,0.5184,0.5184,0.5184,0.5184,0.5033,0.5041,0.5053,0.5066,0.5075,0.5084,0.5093,0.5101,0.5112,0.5126,0.513,0.5143,0.5154,0.5171,0.5178,0.5188,0.5188,0.5191,0.5192,0.5192,0.5192,0.5179,0.519,0.519,0.519,0.519,0.519,0,0.5045,0.5053,0.5064,0.5078,0.5088,0.509,0.5102,0.5109,0.5121,0.5131,0.5141,0.5155,0.5166,0.5176,0.5188,0.5194,0.5196,0.5197,0.5196,0.5198,0.5191,0.5188,0.5195,0.5195,0.5195,0.5195,0.5195,0.5195,0.5052,0.5066,0.5071,0.5088,0.5096,0.5109,0.5115,0.5123,0.5132,0.5147,0.5156,0.5163,0.5173,0.5185,0.5195,0.5198,0.5202,0.5202,0.5205,0.5199,0.5198,0.5198,0.5195,0.5203,0.5203,0.5211,0.5211,0.5211]}]]